This demonstration page uses our WeatherBlox Daily Observations layout. Learn more.

41.55636, -103.73856

Hourly Observations for August 28, 2019

Temp ( °F °C ) Dew Point ( °F °C ) Humidity (%) Winds ( mph kmh ) Pressure ( in mb ) Visibility ( mi km ) Precip ( " mm )
12:58 am 00:58 Clear 69 20.4 42 5.3 37 37 Calm 30.11 1020 10 16.0934 0 0
1:58 am 01:58 Clear 64 17.9 40 4.7 42 42 S 5 7 30.13 1020 10 16.0934 0 0
2:58 am 02:58 Clear 62 16.9 41 5.2 46 46 S 5 7 30.13 1020 10 16.0934 0 0
3:58 am 03:58 Clear 55 13 44 6.5 65 65 S 7 11 30.15 1021 10 16.0934 0 0
4:58 am 04:58 Clear 58 14.5 47 8.1 66 66 SSW 10 17 30.13 1020 10 16.0934 0 0
5:58 am 05:58 Clear 55 13 47 8.1 72 72 SSW 8 13 30.12 1020 10 16.0934 0 0
6:58 am 06:58 Clear 55 12.9 47 8.5 75 75 SSW 15 24 30.12 1020 10 16.0934 0 0
7:58 am 07:58 Clear 54 12.2 48 9.1 82 82 SSW 13 20 30.11 1020 10 16.0934 0 0
8:58 am 08:58 Clear 54 12 48 8.9 82 82 SW 10 17 30.1 1019 10 16.0934 0 0
9:58 am 09:58 Clear 55 12.5 49 9.7 83 83 WSW 5 7 30.08 1019 10 16.0934 0 0
10:58 am 10:58 Clear 54 12 50 10.2 89 89 SW 10 17 30.06 1018 10 16.0934 0 0
11:58 am 11:58 Clear 54 12.3 50 10.1 87 87 SW 9 15 30.06 1018 10 16.0934 0 0
12:58 pm 12:58 Sunny 56 13.3 51 10.5 83 83 SW 5 7 30.06 1018 10 16.0934 0 0
1:58 pm 13:58 Sunny 59 14.9 52 11 78 78 Calm 30.06 1018 10 16.0934 0 0
2:58 pm 14:58 Sunny 63 17.2 52 11 67 67 WNW 7 11 30.06 1018 10 16.0934 0 0
3:58 pm 15:58 Sunny 67 19.7 50 9.8 53 53 NW 9 15 30.07 1018 10 16.0934 0 0
4:58 pm 16:58 Sunny 72 22.2 46 7.9 40 40 NW 8 13 30.04 1017 10 16.0934 0 0
5:58 pm 17:58 Sunny 76 24.4 41 5.2 29 29 NW 9 15 30.03 1017 10 16.0934 0 0
7:58 pm 19:58 Sunny 82 27.7 37 2.8 20 20 N 9 15 29.98 1015 10 16.0934 0 0
8:58 pm 20:58 Sunny 83 28.6 34 1.3 17 17 Calm 29.96 1015 10 16.0934 0 0
9:58 pm 21:58 Sunny 86 29.8 31 -0.7 14 14 NW 9 15 29.93 1014 10 16.0934 0 0
10:58 pm 22:58 Sunny 85 29.6 39 3.9 19 19 ENE 7 11 29.91 1013 10 16.0934 0 0
11:58 pm 23:58 Sunny 83 28.6 40 4.4 21 21 ESE 8 13 29.9 1013 10 16.0934 0 0

Powered by AerisWeather